National Weather Service Raw Text Product

Displaying AFOS PIL: RWREWX Received: 2018-09-18 18:00 UTC


039 
ASUS44 KEWX 181801
RWREWX
SOUTH TEXAS REGIONAL WEATHER ROUNDUP
NATIONAL WEATHER SERVICE AUSTIN/SAN ANTONIO TX
100 PM CDT TUE SEP 18 2018

NOTE: "FAIR" INDICATED FEW OR NO CLOUDS BELOW 12,000 FEET WITH NO
SIGNIFICANT WEATHER AND/OR OBSTRUCTIONS TO VISIBILITY.

* - THESE STATIONS ARE NOT NWS OR FAA STATIONS...AND ARE NOT SUBJECT
    TO NWS AND FAA QUALITY CONTROL.
 
TXZ171-172-183>190-181900-
TEXAS HILL COUNTRY AND EDWARDS PLATEAU
  
CITY           SKY/WX    TMP DP  RH WIND       PRES   REMARKS
JUNCTION       MOSUNNY   86  70  58 S8        30.04F HX  90           
6HR MIN TEMP:  70; 6HR MAX TEMP:  86;                                

*LLANO         MOSUNNY   90  70  51 S10       30.05F HX  95           
BURNET         MOSUNNY   87  70  56 SW8       30.05F HX  92           
6HR MIN TEMP:  72; 6HR MAX TEMP:  88;                                

*HORSESHOE BAY SUNNY     90  69  50 S5        30.03F HX  94           
6HR MIN TEMP:  73; 6HR MAX TEMP:  90;                                

*KERRVILLE     PTSUNNY   84  70  62 SE10      30.05F                  
6HR MIN TEMP:  72; 6HR MAX TEMP:  84;                                

*FREDERICKSBRG MOSUNNY   85  65  51 S9        30.05F                  
6HR MIN TEMP:  70; 6HR MAX TEMP:  85; 6HR PCP:  0.01;                

*ROCKSPRINGS   PTSUNNY   81  70  69 SE12      30.12F                  
*BOERNE STAGE  PTSUNNY   82  70  65 CALM      30.05F                  
*CASTROVILLE   PTSUNNY   85  70  60 CALM      30.02F                  
HONDO          MOSUNNY   86  73  65 S3        30.01F HX  93           
6HR MIN TEMP:  77; 6HR MAX TEMP:  87;                                

*UVALDE        MOSUNNY   84  71  64 S9        30.02F                  
6HR MIN TEMP:  74; 6HR MAX TEMP:  84;                                

DEL RIO        PTSUNNY   82  75  79 SE9       29.99F                  
6HR MIN TEMP:  76; 6HR MAX TEMP:  82;                                

LAUGHLIN AFB   NOT AVBL                                               
CARRIZO SPRGS  MOSUNNY   86  73  66 S7        29.99F HX  93           
*EAGLE PASS    MOCLDY    82  72  69 VRB7G13   30.00F                  
$$

TXZ173-191>194-202-209-217>225-228-181900-
CENTRAL AND SOUTH CENTRAL TEXAS
  
CITY           SKY/WX    TMP DP  RH WIND       PRES   REMARKS
GEORGETOWN     MOSUNNY   90  70  51 S9        30.02F HX  95           
6HR MIN TEMP:  73; 6HR MAX TEMP:  90;                                

AUSTIN/BERGSTM MOSUNNY   89  72  56 SW9       30.00F HX  96           
6HR MIN TEMP:  73; 6HR MAX TEMP:  90;                                

AUSTIN/MABRY   NOT AVBL                                               
*AUSTIN/EXEC   MOSUNNY   90  73  58 SW9       30.01F HX  98           
*LAGO VISTA    PTSUNNY   86  70  59 S6        30.04F HX  91           
6HR MIN TEMP:  74; 6HR MAX TEMP:  87;                                

SAN MARCOS     CLOUDY    88  74  63 SE8       30.01F HX  96           
6HR MIN TEMP:  74; 6HR MAX TEMP:  89;                                

NEW BRAUNFELS  MOSUNNY   87  72  60 SW9       30.00F HX  93           
6HR MIN TEMP:  75; 6HR MAX TEMP:  88;                                

RANDOLPH AFB   PTSUNNY   86  73  66 SE5       30.01F HX  93           
6HR MIN TEMP:  76; 6HR MAX TEMP:  86;                                

PT SAN ANTONIO NOT AVBL                                               
SAN ANTONIO    MOSUNNY   85  71  63 S8        30.02F HX  90           
6HR MIN TEMP:  75; 6HR MAX TEMP:  86;                                

STINSON FIELD  MOSUNNY   90  70  51 S7        29.99F HX  95           
6HR MIN TEMP:  77; 6HR MAX TEMP:  90;                                

*LA GRANGE     MOSUNNY   89  75  64 S3        29.98F HX  99           
6HR MIN TEMP:  74; 6HR MAX TEMP:  90;                                

*GIDDINGS      MOSUNNY   87  70  58 SW3       30.01F HX  91           
6HR MIN TEMP:  70; 6HR MAX TEMP:  87;                                

*GONZALES      MOSUNNY   87  74  65 S5        30.00F HX  96           
6HR MIN TEMP:  75; 6HR MAX TEMP:  88;                                

$$

TXZ163>164-176>182-195>201-210>213-226-227-235-181900-
SOUTHEAST TEXAS
  
CITY           SKY/WX    TMP DP  RH WIND       PRES   REMARKS
COLLEGE STN    PTSUNNY   91  74  57 CALM      29.98F HX 100           
6HR MIN TEMP:  74; 6HR MAX TEMP:  91;                                

*BRYAN         MOSUNNY   91  72  54 CALM      30.00F HX  98           
6HR MIN TEMP:  73; 6HR MAX TEMP:  91;                                

*CALDWELL      MOSUNNY   90  73  56 S5        29.99F HX  98           
6HR MIN TEMP:  74; 6HR MAX TEMP:  91;                                

*CROCKETT        N/A     91  73  55 CALM      30.02F HX 100           
*BRENHAM       MOSUNNY   91  73  55 S5        29.99F HX  99           
6HR MIN TEMP:  74; 6HR MAX TEMP:  92;                                

HUNTSVILLE     PTSUNNY   92  73  53 S3        29.99F HX 100           
6HR MIN TEMP:  77; 6HR MAX TEMP:  93;                                

CONROE         MOSUNNY   90  77  65 W3        29.99F HX 103           
6HR MIN TEMP:  71; 6HR MAX TEMP:  92;                                

HOUSTON BUSH   FAIR      93  76  57 CALM      29.97F HX 105           
6HR MIN TEMP:  78; 6HR MAX TEMP:  94;                                

HOUSTON HOBBY  FAIR      92  73  53 VRB3      29.97F HX 100           
6HR MIN TEMP:  79; 6HR MAX TEMP:  92;                                

*HOUSTON SW AP FAIR      91  76  61 CALM      29.98F HX 103           
6HR MIN TEMP:  74; 6HR MAX TEMP:  91;                                

PEARLAND       FAIR      91  75  59 SW3       29.99F HX 101           
6HR MIN TEMP:  77; 6HR MAX TEMP:  92;                                

HOUSTON HOOKS  FAIR      92  74  55 CALM      29.97F HX 101           
6HR MIN TEMP:  75; 6HR MAX TEMP:  93;                                

ELLINGTON FLD  NOT AVBL                                               
SUGAR LAND     FAIR      93  74  53 CALM      29.97F HX 103           
6HR MIN TEMP:  78; 6HR MAX TEMP:  93; 6HR PCP: TRACE;                

*HOUSTON EXEC  FAIR      90  75  62 CALM      30.00F HX 100           
*CLEVELAND MUN FAIR      92  71  49 CALM      29.98F HX  99           
6HR MIN TEMP:  74; 6HR MAX TEMP:  93;                                

*WHARTON         N/A     87  71  58 CALM      30.00F HX  93           
6HR MIN TEMP:  73; 6HR MAX TEMP:  87;                                

*COLUMBUS      FAIR      86  71  59 CALM      30.00F HX  91           
6HR MIN TEMP:  73; 6HR MAX TEMP:  86;                                

*EAGLE LAKE    CLEAR     88  76  67 CALM      29.99F HX  99           
6HR MIN TEMP:  76; 6HR MAX TEMP:  88;                                

$$

TXZ214>216-236>238-181900-
THE UPPER TEXAS COAST
  
CITY           SKY/WX    TMP DP  RH WIND       PRES   REMARKS
*ORANGE        FAIR      92  76  58 CALM      29.98F HX 104           
6HR MIN TEMP:  76; 6HR MAX TEMP:  93;                                

PORT ARTHUR    PTSUNNY   93  73  52 CALM      29.95F HX 102           
6HR MIN TEMP:  77; 6HR MAX TEMP:  96;                                

GALVESTON      FAIR      92  75  57 CALM      29.98F HX 103           
6HR MIN TEMP:  81; 6HR MAX TEMP:  92;                                

ANGLETON       PTSUNNY   89  77  67 VRB5      29.98F HX 101           
6HR MIN TEMP:  74; 6HR MAX TEMP:  90;                                

*BAY CITY      SUNNY     89  77  67 W5        29.98F HX 101           
PALACIOS       MOSUNNY   89  76  65 CALM      29.98F HX 100           
6HR MIN TEMP:  75; 6HR MAX TEMP:  90;                                

$$

TXZ229>234-239>247-181900-
TEXAS COASTAL BEND AND RIO GRANDE PLAINS
  
CITY           SKY/WX    TMP DP  RH WIND       PRES   REMARKS
VICTORIA       MOSUNNY   88  72  58 VRB3      29.98F HX  94           
6HR MIN TEMP:  73; 6HR MAX TEMP:  90;                                

*BEEVILLE      MOSUNNY   87  73  64 S3        29.99F HX  94           
6HR MIN TEMP:  74; 6HR MAX TEMP:  87;                                

ROCKPORT       SUNNY     88  78  72 E8        29.97F HX 101           
6HR MIN TEMP:  77; 6HR MAX TEMP:  88;                                

*PORT ARANSAS  NOT AVBL                                               
*PORT LAVACA   SUNNY     87  78  73 NE5       29.99F HX 100           
6HR MIN TEMP:  76; 6HR MAX TEMP:  89;                                

*INGLESIDE     SUNNY     90  75  61 SE7       29.97F HX  99           
CORPUS CHRISTI PTSUNNY   91  80  70 S8        29.97F HX 109           
6HR MIN TEMP:  77; 6HR MAX TEMP:  91;                                

CORPUS NAS     PTSUNNY   88  76  67 SE9       29.97F HX  99           
6HR MIN TEMP:  80; 6HR MAX TEMP:  91;                                

*ROBSTOWN      MOSUNNY   87  75  67 SE5       29.98F HX  97           
6HR MIN TEMP:  77; 6HR MAX TEMP:  88;                                

ALICE          MOSUNNY   89  73  59 SE5       29.97F HX  97           
6HR MIN TEMP:  73; 6HR MAX TEMP:  90;                                

KINGSVILLE NAS PTSUNNY   90  73  57 SE7       29.97F HX  98           
6HR MIN TEMP:  76; 6HR MAX TEMP:  91;                                

COTULLA        MOSUNNY   88  74  63 SE8       29.98F HX  96           
6HR MIN TEMP:  74; 6HR MAX TEMP:  88;                                

LAREDO         PTSUNNY   88  75  65 SE10      29.98F HX  97           
6HR MIN TEMP:  76; 6HR MAX TEMP:  89;                                

$$

TXZ248>255-181900-
DEEP SOUTH TEXAS
  
CITY           SKY/WX    TMP DP  RH WIND       PRES   REMARKS
BROWNSVILLE    FAIR      91  76  61 E9        29.96F HX 103           
6HR MIN TEMP:  78; 6HR MAX TEMP:  93;                                

PORT ISABEL    FAIR      89  75  63 E12       29.96F HX  99           
6HR MIN TEMP:  78; 6HR MAX TEMP:  89;                                

HARLINGEN      MOSUNNY   90  77  65 E9        29.95F HX 103           
6HR MIN TEMP:  76; 6HR MAX TEMP:  91;                                

*HEBBRONVILLE  MOSUNNY   87  69  55 CALM      30.00F HX  92           
MCALLEN